Météo par heure à Abakaliki

Ce jour, 14 Avril, Mercredi

Heure Température Précipitation Vent Pression Humidité
00:00 +27°C° 1.4 mm 5 m/s 753 mmHg 80%
01:00 +24°C° 0 mm 6 m/s 752 mmHg 89%
02:00 +24°C° 1.1 mm 6 m/s 752 mmHg 87%
03:00 +25°C° 1.1 mm 5 m/s 751 mmHg 86%
04:00 +25°C° 1.1 mm 4 m/s 751 mmHg 84%
05:00 +25°C° 0 mm 3 m/s 751 mmHg 83%
06:00 +25°C° 0 mm 2 m/s 751 mmHg 83%
07:00 +26°C° 0 mm 2 m/s 751 mmHg 82%
08:00 +27°C° 0 mm 1 m/s 751 mmHg 78%
09:00 +28°C° 0 mm 1 m/s 752 mmHg 74%
10:00 +29°C° 0 mm 1 m/s 752 mmHg 70%
11:00 +29°C° 0 mm 1 m/s 752 mmHg 68%
12:00 +30°C° 0 mm 1 m/s 752 mmHg 66%
13:00 +31°C° 0 mm 2 m/s 751 mmHg 61%
14:00 +31°C° 0 mm 2 m/s 751 mmHg 63%
15:00 +31°C° 0 mm 3 m/s 750 mmHg 65%
16:00 +32°C° 0 mm 4 m/s 750 mmHg 66%
17:00 +30°C° 0 mm 4 m/s 750 mmHg 70%
18:00 +30°C° 0 mm 3 m/s 750 mmHg 74%
19:00 +30°C° 0 mm 3 m/s 750 mmHg 77%
20:00 +29°C° 0 mm 3 m/s 751 mmHg 79%
21:00 +29°C° 0 mm 3 m/s 752 mmHg 80%
22:00 +29°C° 0 mm 2 m/s 752 mmHg 82%
23:00 +28°C° 0 mm 2 m/s 752 mmHg 83%

Demain, 15 Avril, Jeudi

Heure Température Précipitation Vent Pression Humidité
00:00 +28°C° 0 mm 2 m/s 752 mmHg 84%
01:00 +27°C° 0 mm 1 m/s 751 mmHg 85%
02:00 +27°C° 0 mm 1 m/s 751 mmHg 85%
03:00 +27°C° 0 mm 1 m/s 751 mmHg 85%
04:00 +27°C° 0 mm 1 m/s 750 mmHg 85%
05:00 +27°C° 0 mm 1 m/s 750 mmHg 84%
06:00 +27°C° 0 mm 1 m/s 751 mmHg 83%
07:00 +27°C° 0 mm 1 m/s 751 mmHg 82%
08:00 +29°C° 0 mm 1 m/s 751 mmHg 73%
09:00 +31°C° 0 mm 1 m/s 751 mmHg 64%
10:00 +32°C° 0 mm 1 m/s 752 mmHg 55%
11:00 +34°C° 0 mm 1 m/s 751 mmHg 49%
12:00 +36°C° 0 mm 1 m/s 750 mmHg 43%
13:00 +37°C° 0 mm 1 m/s 750 mmHg 38%
14:00 +39°C° 0 mm 1 m/s 749 mmHg 36%
15:00 +39°C° 0 mm 1 m/s 748 mmHg 35%
16:00 +39°C° 0 mm 1 m/s 747 mmHg 34%
17:00 +38°C° 0 mm 2 m/s 747 mmHg 38%
18:00 +37°C° 0 mm 2 m/s 748 mmHg 42%
19:00 +35°C° 0 mm 2 m/s 748 mmHg 46%
20:00 +34°C° 0 mm 2 m/s 748 mmHg 50%
21:00 +32°C° 0 mm 2 m/s 749 mmHg 53%
22:00 +31°C° 0 mm 2 m/s 749 mmHg 57%
23:00 +31°C° 0 mm 3 m/s 749 mmHg 62%

Après-demain, 16 Avril, Vendredi

Heure Température Précipitation Vent Pression Humidité
00:00 +30°C° 0 mm 4 m/s 749 mmHg 67%
01:00 +29°C° 0 mm 4 m/s 749 mmHg 72%
02:00 +29°C° 0 mm 4 m/s 749 mmHg 74%
03:00 +28°C° 0 mm 4 m/s 749 mmHg 77%
04:00 +28°C° 0 mm 4 m/s 749 mmHg 80%
05:00 +28°C° 0 mm 3 m/s 749 mmHg 80%
06:00 +28°C° 0 mm 3 m/s 750 mmHg 81%
07:00 +28°C° 0 mm 3 m/s 750 mmHg 81%
08:00 +30°C° 0 mm 3 m/s 751 mmHg 74%
09:00 +32°C° 0 mm 4 m/s 751 mmHg 66%
10:00 +34°C° 0 mm 5 m/s 751 mmHg 59%
11:00 +36°C° 0 mm 4 m/s 750 mmHg 53%
12:00 +37°C° 0 mm 4 m/s 750 mmHg 48%
13:00 +38°C° 0 mm 4 m/s 749 mmHg 43%
14:00 +40°C° 0 mm 4 m/s 748 mmHg 41%
15:00 +40°C° 0 mm 4 m/s 748 mmHg 40%
16:00 +40°C° 0 mm 4 m/s 747 mmHg 38%
17:00 +37°C° 0 mm 5 m/s 747 mmHg 46%
18:00 +36°C° 0 mm 5 m/s 747 mmHg 54%
19:00 +34°C° 0 mm 6 m/s 748 mmHg 62%
20:00 +33°C° 0 mm 5 m/s 748 mmHg 64%
21:00 +32°C° 0 mm 5 m/s 749 mmHg 67%
22:00 +32°C° 0 mm 5 m/s 749 mmHg 69%
23:00 +30°C° 0 mm 5 m/s 749 mmHg 72%

17 Avril, Samedi

Heure Température Précipitation Vent Pression Humidité
00:00 +29°C° 0 mm 5 m/s 749 mmHg 74%
01:00 +29°C° 0 mm 5 m/s 749 mmHg 77%
02:00 +29°C° 0 mm 4 m/s 749 mmHg 79%
03:00 +28°C° 0 mm 4 m/s 749 mmHg 80%
04:00 +28°C° 0 mm 4 m/s 749 mmHg 82%
05:00 +28°C° 0 mm 3 m/s 750 mmHg 83%
06:00 +28°C° 0 mm 3 m/s 750 mmHg 84%
07:00 +28°C° 0 mm 2 m/s 751 mmHg 85%
08:00 +29°C° 0 mm 3 m/s 751 mmHg 78%
09:00 +30°C° 0 mm 3 m/s 751 mmHg 71%
10:00 +33°C° 0 mm 4 m/s 752 mmHg 64%
11:00 +34°C° 0 mm 4 m/s 751 mmHg 60%
12:00 +35°C° 0 mm 4 m/s 751 mmHg 55%
13:00 +36°C° 0 mm 4 m/s 750 mmHg 51%
14:00 +36°C° 0 mm 4 m/s 750 mmHg 52%
15:00 +35°C° 0 mm 4 m/s 749 mmHg 52%
16:00 +35°C° 0 mm 4 m/s 749 mmHg 53%
17:00 +34°C° 0.1 mm 4 m/s 749 mmHg 57%
18:00 +33°C° 0.1 mm 4 m/s 749 mmHg 61%
19:00 +32°C° 0.1 mm 4 m/s 749 mmHg 65%
20:00 +32°C° 0 mm 4 m/s 750 mmHg 68%
21:00 +30°C° 0 mm 4 m/s 751 mmHg 71%
22:00 +30°C° 0 mm 4 m/s 751 mmHg 74%
23:00 +29°C° 0 mm 3 m/s 751 mmHg 75%

18 Avril, Dimanche

Heure Température Précipitation Vent Pression Humidité
00:00 +29°C° 0 mm 3 m/s 751 mmHg 77%
01:00 +29°C° 0 mm 3 m/s 750 mmHg 79%
02:00 +28°C° 0 mm 3 m/s 750 mmHg 80%
03:00 +28°C° 0 mm 2 m/s 750 mmHg 81%
04:00 +28°C° 0 mm 2 m/s 750 mmHg 83%
05:00 +28°C° 0 mm 2 m/s 751 mmHg 83%
06:00 +28°C° 0 mm 2 m/s 751 mmHg 84%
07:00 +28°C° 0 mm 2 m/s 751 mmHg 85%
08:00 +29°C° 0 mm 3 m/s 752 mmHg 76%
09:00 +31°C° 0 mm 3 m/s 752 mmHg 68%
10:00 +34°C° 0 mm 3 m/s 752 mmHg 59%
11:00 +35°C° 0 mm 3 m/s 752 mmHg 54%
12:00 +36°C° 0 mm 3 m/s 751 mmHg 49%
13:00 +37°C° 0 mm 3 m/s 751 mmHg 44%
14:00 +38°C° 0 mm 3 m/s 750 mmHg 43%
15:00 +38°C° 0 mm 4 m/s 749 mmHg 43%
16:00 +38°C° 0 mm 4 m/s 749 mmHg 42%
17:00 +37°C° 0 mm 4 m/s 749 mmHg 47%
18:00 +35°C° 0 mm 4 m/s 749 mmHg 53%
19:00 +34°C° 0 mm 5 m/s 749 mmHg 58%
20:00 +33°C° 0 mm 5 m/s 750 mmHg 62%
21:00 +32°C° 0 mm 4 m/s 751 mmHg 67%
22:00 +30°C° 0 mm 4 m/s 752 mmHg 71%
23:00 +30°C° 0 mm 4 m/s 751 mmHg 73%

19 Avril, Lundi

Heure Température Précipitation Vent Pression Humidité
00:00 +29°C° 0 mm 3 m/s 751 mmHg 75%
01:00 +29°C° 0 mm 3 m/s 751 mmHg 77%
02:00 +29°C° 0 mm 3 m/s 751 mmHg 78%
03:00 +29°C° 0 mm 3 m/s 750 mmHg 78%
04:00 +28°C° 0 mm 3 m/s 750 mmHg 79%
05:00 +28°C° 0 mm 3 m/s 751 mmHg 79%
06:00 +28°C° 0 mm 2 m/s 751 mmHg 80%
07:00 +28°C° 0 mm 2 m/s 751 mmHg 81%
08:00 +30°C° 0 mm 2 m/s 751 mmHg 73%
09:00 +33°C° 0 mm 3 m/s 752 mmHg 66%
10:00 +34°C° 0 mm 3 m/s 752 mmHg 59%
11:00 +36°C° 0 mm 3 m/s 751 mmHg 54%
12:00 +37°C° 0 mm 3 m/s 751 mmHg 48%
13:00 +39°C° 0 mm 3 m/s 750 mmHg 43%
14:00 +39°C° 0 mm 3 m/s 749 mmHg 41%
15:00 +40°C° 0 mm 4 m/s 748 mmHg 39%
16:00 +41°C° 0 mm 4 m/s 748 mmHg 38%
17:00 +39°C° 0 mm 5 m/s 748 mmHg 43%
18:00 +36°C° 0 mm 5 m/s 748 mmHg 49%
19:00 +35°C° 0 mm 6 m/s 748 mmHg 55%
20:00 +34°C° 0.7 mm 5 m/s 748 mmHg 60%
21:00 +33°C° 0.7 mm 4 m/s 749 mmHg 66%
22:00 +32°C° 0.7 mm 4 m/s 750 mmHg 72%
23:00 +30°C° 0 mm 4 m/s 750 mmHg 74%
Voir plus

Nous avons besoin de votre consentement

Meteoprog et ses fournisseurs de services peuvent stocker et accéder à des données personnelles telles que des cookies, des identifiants d'appareils ou d'autres technologies similaires sur votre appareil et traiter ces données pour personnaliser le contenu et les publicités, ainsi que pour fournir des fonctionnalités de médias sociaux et analyser le trafic.

  • Stocker et/ou accéder à des informations sur votre appareil

    Des cookies, des identifiants d'appareils ou d'autres informations peuvent être stockés ou accessibles sur votre appareil aux fins indiquées ci-dessus.

  • Annonces et contenus personnalisés, mesure des annonces et des contenus, connaissance de l'audience et développement de produits

    Les annonces et le contenu peuvent être personnalisés en fonction d'un profil. D'autres données peuvent être ajoutées pour mieux personnaliser les annonces et le contenu. Les performances des publicités et du contenu peuvent être mesurées. Il est possible d'obtenir des informations sur le public qui a vu les publicités et le contenu. Ces données peuvent être utilisées pour développer ou améliorer l'expérience de l'utilisateur, les systèmes et les logiciels.

En cliquant sur "J'accepte", vous autorisez l'utilisation de cookies, des identifiants d'appareils, des balises web ou d'autres technologies similaires. Vos paramètres peuvent être modifiés dans le navigateur de votre appareil.

Dans certains cas, des intérêts légitimes peuvent être invoqués plutôt qu'un consentement. Vous pouvez en savoir plus à ce sujet dans notre Politique de confidentialité et de cookies.